sat.trackr.live / text

‹ back to catalog

STARLINK-36103

NORAD 66985 · 2025-288AC

PAYLOAD ACTIVE UNKNOWN

§ Identity

Operator
Country
US
Launch date
2025-12-08
Launch site
AFETR
Launch vehicle
Mass (kg)
RCS (m²)

Purposes: comms

External: N2YO · Heavens-Above · Gunter

§ Orbital elements

Epoch: 2026-09-20T08:13:48.541152Z

Period
94.27 min
Inclination
42.9993°
Eccentricity
0.0001398
Mean motion
15.27593140 rev/d
Perigee alt
482.1 km
Apogee alt
484.0 km
Semi-major
6,861.1 km
B*
6.5490e-4
RAAN
4.4384°
Arg perigee
208.6521°
Mean anomaly
151.4254°
Rev number
4,505

§ Raw data

STARLINK-361031 66985U 25288AC  26263.34292293  .00017810  00000+0  65490-3 0  99952 66985  42.9993   4.4384 0001398 208.6521 151.4254 15.27593140 45053

JSON: /api/v1/satellites/66985 · /tle

For live sub-satellite position, see the globe view (requires WebGL).

§ Visibility from observer

Set your observer location to see the next 7 days of passes ≥ 10°. The values pass through the URL so the page stays shareable.

No JS? Fill the form by hand. The geolocation button needs JavaScript.